This is the latest recevied weather packets stored in our database for station/object KG7FOQ-13. If no packets are shown the sender has not sent any weather packets the latest 10 day(s).
| Time | Temp. | Humidity | Pressure | Rain* | Wind** | Luminosity | Snow |
|---|---|---|---|---|---|---|---|
| 1777919454 | 20.56° C | 32% | 1007.6 hPa | 0 mm | - | - | - |
| 1777919406 | 20.56° C | 32% | 1007.6 hPa | 0 mm | - | - | - |
| 1777919105 | 20.56° C | 32% | 1007.8 hPa | 0 mm | - | - | - |
| 1777918805 | 20.56° C | 31% | 1007.7 hPa | 0 mm | - | - | - |
| 1777918504 | 21.11° C | 29% | 1008 hPa | 0 mm | - | - | - |
| 1777918204 | 21.67° C | 31% | 1008 hPa | 0 mm | - | - | - |
| 1777917903 | 20.56° C | 30% | 1008.1 hPa | 0 mm | - | - | - |
| 1777917603 | 20.56° C | 30% | 1008.1 hPa | 0 mm | - | - | - |
| 1777917302 | 21.11° C | 31% | 1008.1 hPa | 0 mm | - | - | - |
| 1777917002 | 20.56° C | 31% | 1008.2 hPa | 0 mm | - | - | - |
| 1777916401 | 20.56° C | 34% | 1008.2 hPa | 0 mm | - | - | - |
| 1777916100 | 20° C | 31% | 1008.3 hPa | 0 mm | - | - | - |
| 1777915800 | 19.44° C | 32% | 1008.3 hPa | 0 mm | - | - | - |
| 1777915499 | 20° C | 33% | 1008.3 hPa | 0 mm | - | - | - |
| 1777915200 | 19.44° C | 32% | 1008.3 hPa | 0 mm | - | - | - |
| 1777914898 | 19.44° C | 31% | 1008.4 hPa | 0 mm | - | - | - |
| 1777914597 | 19.44° C | 32% | 1008.4 hPa | 0 mm | - | - | - |
| 1777914296 | 19.44° C | 32% | 1008.4 hPa | 0 mm | - | - | - |
| 1777913992 | 19.44° C | 33% | 1008.4 hPa | 0 mm | - | - | - |
| 1777913692 | 19.44° C | 33% | 1008.3 hPa | 0 mm | - | - | - |
| 1777913391 | 19.44° C | 34% | 1008.4 hPa | 0 mm | - | - | - |
| 1777913091 | 18.89° C | 34% | 1008.4 hPa | 0 mm | - | - | - |
| 1777912790 | 18.89° C | 35% | 1008.4 hPa | 0 mm | - | - | - |
| 1777912490 | 18.89° C | 34% | 1008.5 hPa | 0 mm | - | - | - |
| 1777912189 | 18.33° C | 35% | 1008.5 hPa | 0 mm | - | - | - |
* Rain latest hour (hover to see other rain measurements)
** Current wind speed in m/s (hover to see current wind gust speed)